Regional Weather Roundup
Issued by NWS

Home | Current Version | Previous Version | Graphics & Text | Print | Product List | Glossary On
Versions: 1 2 3 4 5 6 7 8 9 10 11 12 13 14 15 16 17 18 19 20 21 22 23 24 25 26 27 28 29 30 31 32 33 34 35 36 37 38 39 40 41 42 43 44 45 46 47 48 49 50
000
ASUS43 KDMX 271003
RWRIA

WEATHER ROUNDUP FOR IOWA
NATIONAL WEATHER SERVICE DES MOINES IA
500 AM CDT WED JUL 27 2016

NOTE: "FAIR" INDICATES FEW OR NO CLOUDS BELOW 12,000 FEET WITH NO
SIGNIFICANT WEATHER AND/OR OBSTRUCTIONS TO VISIBILITY.

* - THESE STATIONS ARE NOT NWS STATIONS...THUS NOT UNDER NWS
QUALITY CONTROL.  THEY ALSO DO NOT REPORT WEATHER SUCH
AS PRECIPITATION OR FOG.

IAZ001>003-012>014-020>022-031>034-043>046-271100-
   NORTHWEST IOWA

CITY           SKY/WX    TMP DP  RH WIND       PRES   REMARKS
CARROLL *      PTCLDY    64  64 100 S5        29.99F
CHEROKEE *     CLOUDY    67  66  96 S3        29.96F
DENISON *        N/A     68  64  88 CALM      29.97F
LE MARS *      MOCLDY    70  66  88 S6        29.95F
SHELDON *      CLOUDY    68  66  94 CALM      29.96S
SIOUX CITY     MOCLDY    71  66  84 SE8       29.93F
SPENCER        CLOUDY    66  63  90 S5        29.98F
STORM LAKE *   CLOUDY    66  64  94 S8        29.99F
$$

IAZ055>058-069>071-079>083-090>094-271100-
   SOUTHWEST IOWA

CITY           SKY/WX    TMP DP  RH WIND       PRES   REMARKS
ATLANTIC *     CLOUDY    64  63  94 CALM      30.00F
CLARINDA *       N/A     63  63 100 MISG      30.04S FOG
COUNCIL BLFS * CLOUDY    68  66  94 SE7       29.98F
CRESTON *      PTCLDY    66  64  94 CALM      30.04S
HARLAN  *      CLOUDY    64  64 100 CALM      30.02F
LAMONI         PTCLDY    65  64  97 CALM      30.02S
RED OAK *      CLOUDY    66  64  94 CALM      30.01F
SHENANDOAH *     N/A     66  66 100 S6        30.01F
$$

IAZ047>049-059>061-072>074-084-271100-
   CENTRAL IOWA

CITY           SKY/WX    TMP DP  RH WIND       PRES   REMARKS
AMES           CLEAR     61  61 100 CALM      30.01S FOG
ANKENY *         N/A    N/A N/A N/A MISG        N/A
BOONE *          N/A     66  64  94 SW3       30.01R
CHARITON *       N/A    N/A N/A N/A MISG        N/A
DES MOINES     PTCLDY    71  66  84 CALM      30.00S
GRINNELL*      PTCLDY    63  61  93 CALM      30.02S
KNOXVILLE *    MOCLDY    66  64  94 CALM      30.00S
MARSHALLTOWN   PTCLDY    63  63 100 SE5       30.00F
NEWTON *       PTCLDY    64  64 100 CALM      30.01S
PELLA *        CLEAR     63  62  97 CALM      30.02S FOG
PERRY *          N/A     63  62  98 CALM      30.01F
$$

IAZ004>006-015-016-023>025-035-036-271100-
   NORTH CENTRAL IOWA

CITY           SKY/WX    TMP DP  RH WIND       PRES   REMARKS
ALGONA *       PTCLDY    64  64 100 S5        30.00F
ESTHERVILLE    CLOUDY    65  64  97 S7        29.97F
FORT DODGE *   CLOUDY    64  63  94 CALM      30.01F
MASON CITY     CLOUDY    64  62  93 S5        30.02F
FOREST CITY *    N/A     61  61 100 CALM      30.01S
IOWA FALLS *     N/A     63  61  94 CALM      30.02F
$$

IAZ007>011-017>019-026>030-037>042-050>054-066-271100-
   NORTHEAST IOWA

CITY           SKY/WX    TMP DP  RH WIND       PRES   REMARKS
CEDAR RAPIDS   CLEAR     65  65 100 CALM      30.01R
CHARLES CITY * CLEAR     64  64 100 CALM      30.02S
CLINTON *      CLEAR     63  62  97 CALM      30.02R
DECORAH *      PTCLDY    66  66 100 CALM      30.03R
DUBUQUE        PTCLDY    65  62  90 CALM      30.04R
MONTICELLO *   FOG       63  63 100 CALM      30.02R VSB 1/4
WATERLOO       PTCLDY    64  62  93 CALM      30.00S
$$

IAZ064-065-067-068-078-271100-
   EAST CENTRAL IOWA

CITY           SKY/WX    TMP DP  RH WIND       PRES   REMARKS
DAVENPORT      CLEAR     63  61  93 CALM      30.02R
IOWA CITY      CLEAR     67  64  90 CALM      30.03R
MT. PLEASANT * PTCLDY    68  68 100 CALM      30.01R
MUSCATINE *    CLEAR     64  63  94 CALM      30.01S
QUAD CITIES    CLEAR     66  63  90 CALM      30.01R
$$

IAZ062-063-075>077-085>089-095>099-271100-
   SOUTHEAST IOWA

CITY           SKY/WX    TMP DP  RH WIND       PRES   REMARKS
BURLINGTON     PTCLDY    69  67  93 CALM      30.01R
FAIRFIELD *    PTCLDY    64  64 100 CALM      30.01R
KEOKUK *       CLOUDY    70  68  94 CALM      30.00S
CENTERVILLE *    N/A     63  61  94 CALM      30.03S
OTTUMWA        CLEAR     61  61 100 CALM      30.01S FOG
WASHINGTON *   CLEAR     64  64 100 CALM      30.02S
$$

ABBREVIATIONS USED IN REMARKS
   TC - TEMPERATURES IN CELSIUS
  WCI - WIND CHILL INDEX
   HX - HEAT INDEX
  VSB - VISIBILITY
$$




USA.gov is the U.S. government's official web portal to all federal, state and local government web resources and services.